Back to catalog

COSMOS 2090

AliveMilitaryPO
NORAD 20735·PAYLOAD·🇷🇺 Russia

Launched Aug 8, 1990 from Plesetsk Cosmodrome

Loading…

Next Passes (next 24 hours)

TLE

FreshSource: Space-Track

Epoch: Sep 14, 2026, 07:50 UTC

1 20735U 90070A   26257.32650606  .00000011  00000-0  28757-5 0  9999
2 20735  82.5664 214.8918 0013236 217.7468 295.7083 12.65368338667203

Track COSMOS 2090 in real time with AllMySat

Download on the App Store